This is the latest recevied weather packets stored in our database for station/object KD2VWU. If no packets are shown the sender has not sent any weather packets the latest 1 day(s).
| Time | Temp. | Humidity | Pressure | Rain* | Wind** | Luminosity | Snow |
|---|---|---|---|---|---|---|---|
| 1778008086 | 26.67° C | 46% | 1004.7 hPa | 0 mm | 2.24 m/s, 260° | - | - |
| 1778007782 | 26.67° C | 45% | 1005 hPa | 0 mm | 2.24 m/s, 290° | - | - |
| 1778007478 | 26.67° C | 47% | 1005.1 hPa | 0 mm | 1.79 m/s, 204° | - | - |
| 1778007174 | 26.67° C | 47% | 1005.5 hPa | 0 mm | 0.89 m/s, 160° | - | - |
| 1778006870 | 26.67° C | 46% | 1005.3 hPa | 0 mm | 1.34 m/s, 310° | - | - |
| 1778006568 | 26.67° C | 48% | 1005.3 hPa | 0 mm | 0.45 m/s, 244° | - | - |
| 1778006265 | 26.67° C | 46% | 1005.5 hPa | 0 mm | 0.89 m/s, 31° | - | - |
| 1778005962 | 26.67° C | 47% | 1005.6 hPa | 0 mm | 0.45 m/s, 183° | - | - |
| 1778005658 | 26.67° C | 47% | 1005.6 hPa | 0 mm | 0.89 m/s, 230° | - | - |
| 1778005355 | 26.67° C | 49% | 1005.5 hPa | 0 mm | 1.34 m/s, 308° | - | - |
| 1778005051 | 26.67° C | 50% | 1005.6 hPa | 0 mm | 2.24 m/s, 166° | - | - |
| 1778004749 | 26.67° C | 47% | 1005.7 hPa | 0 mm | 1.34 m/s, 330° | - | - |
| 1778004446 | 26.67° C | 49% | 1005.5 hPa | 0 mm | 1.34 m/s, 287° | - | - |
| 1778004142 | 27.22° C | 45% | 1005.6 hPa | 0 mm | 0.89 m/s, 171° | - | - |
| 1778003833 | 26.67° C | 46% | 1005.7 hPa | 0 mm | 0.45 m/s, 43° | - | - |
| 1778003529 | 26.11° C | 46% | 1005.8 hPa | 0 mm | 0.45 m/s, 240° | - | - |
| 1778003226 | 26.67° C | 47% | 1005.7 hPa | 0 mm | 0.89 m/s, 197° | - | - |
| 1778002923 | 26.67° C | 46% | 1006 hPa | 0 mm | 1.79 m/s, 160° | - | - |
| 1778002619 | 26.67° C | 51% | 1005.8 hPa | 0 mm | 0.45 m/s, 200° | - | - |
| 1778002316 | 26.67° C | 46% | 1005.9 hPa | 0 mm | 2.24 m/s, 221° | - | - |
| 1778002013 | 26.11° C | 45% | 1005.9 hPa | 0 mm | 0.89 m/s, 244° | - | - |
| 1778001710 | 26.67° C | 49% | 1006 hPa | 0 mm | 0.45 m/s, 99° | - | - |
| 1778001409 | 26.11° C | 48% | 1006 hPa | 0 mm | 0.89 m/s, 220° | - | - |
| 1778001106 | 26.11° C | 50% | 1005.8 hPa | 0 mm | 0.45 m/s, 197° | - | - |
| 1778000804 | 26.11° C | 50% | 1006.1 hPa | 0 mm | 0.89 m/s, 287° | - | - |
* Rain latest hour (hover to see other rain measurements)
** Current wind speed in m/s (hover to see current wind gust speed)